Richmond Hanover County, VA

8:24 PM EDT on May 22, 2018 (GMT -0400)
Hanover County Municipal

Weather History for KOFP - October, 2012

Change the Weather History Date:

Monday, October 29, 2012

  Actual Average Record
Temperature  
Mean Temperature 48 °F -  
Max Temperature 53 °F 65 °F 86 °F (1984)
Min Temperature 42 °F 40 °F 24 °F (1952)
Degree Days  
Heating Degree Days 18    
Moisture  
Dew Point 46 °F    
Average Humidity 91    
Maximum Humidity 97    
Minimum Humidity 87    
Precipitation  
Precipitation 2.02 in - - ()
Sea Level Pressure  
Sea Level Pressure 29.26 in    
Wind  
Wind Speed 12 mph (WNW)    
Max Wind Speed 22 mph    
Max Gust Speed 34 mph    
Visibility 6 miles    
Events Rain    
Averages and records for this station are not official NWS values.
T = Trace of Precipitation, MM = Missing Value Source: NWS Daily Summary

Daily Weather History Graph

Daily Weather History Graph

Search for Another Location

Airport or City:

Astronomy

Oct. 29, 2012 Rise Set
Actual Time 7:32 AM EDT 6:13 PM EDT
Civil Twilight 7:05 AM EDT 6:40 PM EDT
Nautical Twilight 6:34 AM EDT 7:11 PM EDT
Astronomical Twilight 6:03 AM EDT 7:42 PM EDT
Moon 6:05 PM EDT (10/29) 7:20 AM EDT (10/29)
Length of Visible Light 11h 35m
Length of Day
10h 41m
Full, 100% of the Moon is Illuminated
Oct 29
Full
Oct 29
Full
Nov 6
Last Quarter
Nov 13
New
Nov 20
First Quarter

Hourly Weather History & Observations

Time (EDT) Temp. Windchill Dew Point Humidity Pressure Visibility Wind Dir Wind Speed Gust Speed Precip Events Conditions
12:54 AM 53.1 °F - 51.1 °F 93% 29.53 in 6.0 mi NNW 6.9 mph - 0.01 in   Overcast
1:54 AM 52.0 °F - 51.1 °F 97% 29.52 in 4.0 mi NNW 8.1 mph 16.1 mph 0.03 in Rain Light Rain
2:54 AM 52.0 °F - 51.1 °F 97% 29.50 in 6.0 mi NNW 8.1 mph - 0.01 in   Overcast
3:54 AM 52.0 °F - 50.0 °F 93% 29.49 in 10.0 mi NNW 6.9 mph - 0.00 in Rain Light Rain
4:08 AM 51.8 °F - 50.0 °F 94% 29.48 in 8.0 mi NNW 9.2 mph - 0.01 in Rain Light Rain
5:54 AM 52.0 °F - 48.9 °F 89% 29.45 in 10.0 mi NNW 9.2 mph 23.0 mph 0.01 in Rain Light Rain
6:54 AM 51.1 °F - 48.9 °F 92% 29.44 in 7.0 mi Variable 6.9 mph - 0.04 in Rain Rain
7:25 AM 51.8 °F - 48.2 °F 88% 29.44 in 7.0 mi North 11.5 mph 23.0 mph 0.04 in Rain Light Rain
7:42 AM 51.8 °F - 48.2 °F 88% 29.43 in 7.0 mi NNW 10.4 mph 19.6 mph 0.06 in Rain Rain
7:54 AM 51.1 °F - 48.0 °F 89% 29.44 in 7.0 mi NNW 9.2 mph 17.3 mph 0.08 in Rain Rain
8:07 AM 50.0 °F - 48.2 °F 94% 29.43 in 6.0 mi NNW 9.2 mph 20.7 mph 0.01 in Rain Light Rain
8:25 AM 50.0 °F - 48.2 °F 94% 29.43 in 6.0 mi NNW 10.4 mph 21.9 mph 0.04 in Rain Light Rain
8:54 AM 50.0 °F - 48.0 °F 93% 29.42 in 9.0 mi NNW 9.2 mph 18.4 mph 0.06 in Rain Light Rain
9:37 AM 50.0 °F - 48.2 °F 94% 29.40 in 10.0 mi NW 11.5 mph 19.6 mph 0.03 in Rain Light Rain
9:54 AM 50.0 °F - 48.0 °F 93% 29.39 in 10.0 mi NW 16.1 mph 23.0 mph 0.04 in Rain Light Rain
10:54 AM 50.0 °F - 46.9 °F 89% 29.37 in 8.0 mi NW 12.7 mph 25.3 mph 0.05 in Rain Light Rain
11:02 AM 50.0 °F - 46.4 °F 87% 29.36 in 7.0 mi NW 12.7 mph 24.2 mph 0.02 in Rain Light Rain
11:54 AM 48.9 °F - 46.0 °F 90% 29.32 in 3.0 mi NW 19.6 mph 27.6 mph 0.27 in Rain Rain
12:06 PM 48.2 °F - 46.4 °F 93% 29.32 in 4.0 mi NW 16.1 mph 26.5 mph 0.04 in Rain Rain
12:40 PM 48.2 °F - 46.4 °F 93% 29.29 in 4.0 mi WNW 18.4 mph 26.5 mph 0.18 in Rain Rain
12:54 PM 48.9 °F - 46.0 °F 90% 29.28 in 4.0 mi WNW 18.4 mph 29.9 mph 0.23 in Rain Rain
1:13 PM 48.2 °F - 46.4 °F 93% 29.26 in 2.5 mi WNW 16.1 mph 26.5 mph 0.09 in Rain Heavy Rain
1:27 PM 48.2 °F - 44.6 °F 87% 29.26 in 3.0 mi WNW 21.9 mph 31.1 mph 0.15 in Rain Rain
1:50 PM 48.2 °F - 44.6 °F 87% 29.24 in 2.5 mi WNW 20.7 mph 27.6 mph 0.25 in Rain Heavy Rain
1:54 PM 48.0 °F - 45.0 °F 89% 29.24 in 2.5 mi WNW 19.6 mph 28.8 mph 0.28 in Rain Heavy Rain
2:25 PM 46.4 °F 38.5 °F 44.6 °F 93% 29.21 in 3.0 mi WNW 21.9 mph 32.2 mph 0.17 in Rain Heavy Rain
2:38 PM 46.4 °F 39.2 °F 44.6 °F 93% 29.20 in 2.5 mi WNW 18.4 mph 28.8 mph 0.24 in Rain Heavy Rain
2:45 PM 46.4 °F 38.7 °F 44.6 °F 93% 29.20 in 2.5 mi WNW 20.7 mph 26.5 mph 0.28 in Rain Heavy Rain
2:54 PM 46.9 °F - 44.1 °F 90% 29.19 in 3.0 mi WNW 17.3 mph 32.2 mph 0.32 in Rain Rain
3:40 PM 46.4 °F 39.5 °F 42.8 °F 87% 29.15 in 6.0 mi West 17.3 mph 29.9 mph 0.10 in Rain Rain
4:36 PM 44.6 °F 37.2 °F 42.8 °F 93% 29.11 in 5.0 mi West 17.3 mph 26.5 mph 0.06 in Rain Rain
4:54 PM 45.0 °F 37.4 °F 42.1 °F 90% 29.09 in 6.0 mi West 18.4 mph 28.8 mph 0.08 in Rain Light Rain
5:54 PM 45.0 °F 36.9 °F 42.1 °F 90% 29.05 in 6.0 mi West 20.7 mph 27.6 mph 0.08 in Rain Light Rain
6:54 PM 44.1 °F 36.5 °F 42.1 °F 93% 29.02 in 6.0 mi West 17.3 mph 25.3 mph 0.11 in Rain Rain
7:54 PM 44.1 °F 37.4 °F 41.0 °F 89% 29.00 in 7.0 mi West 13.8 mph 34.5 mph 0.08 in Rain Rain
8:54 PM 44.1 °F 36.2 °F 41.0 °F 89% 28.97 in 7.0 mi WSW 18.4 mph 33.4 mph 0.12 in Rain Light Rain
9:06 PM 42.8 °F 34.8 °F 41.0 °F 93% 28.98 in 9.0 mi WSW 17.3 mph 31.1 mph 0.01 in Rain Light Rain
9:54 PM 44.1 °F 36.5 °F 41.0 °F 89% 28.97 in 9.0 mi WSW 17.3 mph 28.8 mph 0.05 in Rain Light Rain
10:54 PM 44.1 °F 35.9 °F 41.0 °F 89% 28.97 in 9.0 mi SW 19.6 mph 28.8 mph 0.05 in Rain Light Rain
11:03 PM 44.6 °F 37.2 °F 41.0 °F 87% 28.97 in 10.0 mi SW 17.3 mph 29.9 mph 0.00 in Rain Light Rain
11:54 PM 43.0 °F 35.1 °F 41.0 °F 93% 28.97 in 10.0 mi SW 17.3 mph 27.6 mph 0.02 in Rain Light Rain